User: anonymous   Login
Location: Alberta Star Party
(51.6612°N, 112.9089°W)
Time: 22:08:09
(UTC-07:00)
Language:

AO-Echo - Orbit

View from above orbital plane
View from above orbital plane
View from above satellite
View from above satellite

Ground track
Ground track

The orbit data is extracted from the following two-line orbital elements,

1 28375U 04025K   17052.81924571  .00000022  00000-0  20050-4 0  9993
2 28375  98.3511 348.7250 0081336 271.5211  87.6663 14.41825227665192
Epoch (UTC): 21 February 2017 19:39:42
Eccentricity: 0.0081336
inclination: 98.3511°
perigee height: 694 km
apogee height: 810 km
right ascension of ascending node: 348.7250°
argument of perigee: 271.5211°
revolutions per day: 14.41825227
mean anomaly at epoch: 87.6663°
orbit number at epoch: 66519

The dashed part of the orbit path shows where the satellite is in the earth's shadow,  

DLR